[Iaude] MPEC M60: 2017 BD241 [a=45.48,e=0.16,i=23.0,H=8.5]
    mpec at cfa.harvard.edu 
    mpec at cfa.harvard.edu
       
    Wed Jun 26 21:38:35 EDT 2024
    
    
  
M.P.E.C. 2024-M60                                 Issued 2024 June 27, 01:36 UT
     The Minor Planet Electronic Circulars contain information on unusual
         minor planets, routine data on comets and natural satellites,
         and occasional editorial announcements.  They are published
    on behalf of Division F of the International Astronomical Union by the
          Minor Planet Center, Smithsonian Astrophysical Observatory,
                          Cambridge, MA 02138, U.S.A.
			  
             Prepared using the Tamkin Foundation Computer Network
                              MPC at CFA.HARVARD.EDU
            URL https://www.minorplanetcenter.net/    ISSN 1523-6714
                                   2017 BD241                                   
Observations:
     K17BO1D*4C2017 01 28.50412 10 03 09.69 -01 25 47.0          25.4 z1EM060T09
     K17BO1D 4C2017 01 28.52030 10 03 09.62 -01 25 46.9          24.4 z1EM060T09
     K17BO1D 4C2017 01 28.54708 10 03 09.50 -01 25 46.2          24.9 z1EM060T09
     K17BO1D 4C2017 01 28.54976 10 03 09.50 -01 25 46.4          24.9 z1EM060T09
     K17BO1D 4C2017 01 28.56057 10 03 09.45 -01 25 46.0          24.6 z1EM060T09
     K17BO1D 4C2017 02 02.39300 10 02 49.35 -01 24 05.5          24.9 r1EM060T09
     K17BO1D 4C2017 02 02.40846 10 02 49.30 -01 24 05.3          25.0 r1EM060T09
     K17BO1D 4C2017 02 02.42388 10 02 49.22 -01 24 04.8          24.6 r1EM060T09
     K17BO1D 1C2017 03 29.24917509 59 05.80 -00 56 35.8                WEM060T09
     K17BO1D 1C2017 03 29.26174209 59 05.76 -00 56 35.4                WEM060T09
     K17BO1D 1C2017 04 28.31759109 58 03.11 -00 41 19.5                WEM060T09
     K17BO1D 1C2017 04 28.33240209 58 03.11 -00 41 19.1                WEM060T09
     K17BO1D 4C2018 01 17.47531 10 08 59.95 -01 30 23.2          24.6 i1EM060T09
     K17BO1D 4C2018 01 17.53186 10 08 59.75 -01 30 22.7          24.5 i1EM060T09
     K17BO1D 4C2018 01 17.55609 10 08 59.66 -01 30 22.0          24.5 i1EM060T09
     K17BO1D 4C2018 01 17.58294 10 08 59.57 -01 30 22.0          24.4 i1EM060T09
     K17BO1D 1C2018 12 13.64038010 15 24.15 -01 33 40.1                WEM060T09
     K17BO1D 1C2019 02 04.42744210 12 56.06 -01 26 29.3                WEM060T09
Observer details:
T09 Subaru Telescope, Maunakea.  Observers H. Aihara, Y. AlSayyad, M. Ando, R.
    Armstrong, J. Bosch, E. Egami, H. Furusawa, J. Furusawa, S. Harasawa, Y.
    Harikane, B.-C. Hsieh, H. Ikeda, K. Ito, I. Iwata, T. Kodama, M. Koike, M.
    Kokubo, Y. Komiyama, X. Li, Y. Liang, Y.-T. Lin, R. H. Lupton, N. B. Lust,
    L. A. MacArthur, K. Mawatari, S. Mineo, H. Miyatake, S. Miyazaki, S. More,
    T. Morishima, H. Murayama, K. Nakajima, F. Nakata, A. J. Nishizawa, M.
    Oguri, N. Okabe, Y. Okura, Y. Ono, K. Osato, M. Ouchi, Y.-C. Pan, A. A.
    Plazas Malagon, P. A. Price, S. L. Reed, E. S. Rykoff, T. Shibuya, M.
    Simunovic, M. A. Strauss, K. Sugimori, Y. Suto, N. Suzuki, M. Takada, Y.
    Takagi, T. Takata, S. Takita, M. Tanaka, S. Tang, D. S. Taranu, T. Terai,
    Y. Toba, E. L. Turner, H. Uchiyama, B. Vijarnwannaluk, C. Z. Waters, Y.
    Yamada, N. Yamamoto, T. Yamashita.  Measurers H. Fukuyama, S. Unseki, S.
    Deen.  8.2-m f/2.0 reflector + CCD(HSC), 8.3-m Subaru Telescope + CCD.
Orbital elements:
2017 BD241                                                                      
Epoch 2024 Mar. 31.0 TT = JDT 2460400.5                 Alexandersen            
M  74.70784              (2000.0)            P               Q                  
n   0.00321300     Peri.  243.33019     +0.39616122     -0.91785030             
a  45.4843480      Node   183.61101     +0.91802399     +0.39644705             
e   0.1556274      Incl.   23.03007     +0.01697776     -0.01950796             
P 307              H    8.59          G   0.15           U   5                  
Residuals in seconds of arc
170128 T09  0.0   0.1+    170202 T09  0.2+  0.0     180117 T09  0.0   0.3+
170128 T09  0.0   0.1-    170202 T09  0.0   0.2+    180117 T09  0.0   0.0
170128 T09  0.2-  0.0     170329 T09  0.1-  0.0     180117 T09  0.0   0.4+
170128 T09  0.0   0.2-    170329 T09  0.1-  0.1-    180117 T09  0.1+  0.0
170128 T09  0.0   0.0     170428 T09  0.1-  0.1-    181213 T09  0.1+  0.1-
170202 T09  0.0   0.1+    170428 T09  0.2+  0.1-    190204 T09  0.1-  0.1-
Ephemeris:
2017 BD241               a,e,i = 45.48, 0.16, 23                 q = 38.4057
Date    TT    R. A. (2000) Decl.     Delta      r    Elong.  Phase     V
2024 05 28    10 32 39.8 -00 41 21  44.6465 44.7146    93.2     1.3    25.3
...
2024 06 12    10 33 00.6 -00 38 59  44.9018 44.7206    79.1     1.3    25.3
...
2024 06 20    10 33 18.9 -00 38 31  45.0339 44.7239    71.6     1.2    25.3
...
2024 06 26    10 33 35.7 -00 38 32  45.1294 44.7263    66.0     1.2    25.3
2024 06 27    10 33 38.7 -00 38 34  45.1450 44.7267    65.1     1.2    25.3
2024 06 28    10 33 41.8 -00 38 37  45.1604 44.7271    64.2     1.2    25.3
...
2024 07 04    10 34 01.9 -00 39 03  45.2503 44.7295    58.6     1.1    25.3
...
2024 07 12    10 34 32.3 -00 40 07  45.3618 44.7327    51.3     1.0    25.3
...
2024 07 27    10 35 38.6 -00 43 30  45.5393 44.7387    37.6     0.8    25.3
M. P. C. Staff               (C) Copyright 2024 MPC           M.P.E.C. 2024-M60
    
    
More information about the Iaude
mailing list